Time,TemperatureF,DewpointF,PressureIn,WindDirection,WindDirectionDegrees,WindSpeedMPH,WindSpeedGustMPH,Humidity,HourlyPrecipIn,Conditions,Clouds,dailyrainin,SoftwareType,DateUTC
2013-08-30 00:00:00,79.3,71.8,29.85,South,190,0.0,0.0,78,0.00,,,0.00,Wunderground v.1.15,2013-08-30 05:00:00,
2013-08-30 00:05:00,79.1,72.0,29.85,South,190,0.0,0.0,79,0.00,,,0.00,Wunderground v.1.15,2013-08-30 05:05:00,
2013-08-30 00:10:00,79.0,71.9,29.85,South,190,0.0,0.0,79,0.00,,,0.00,Wunderground v.1.15,2013-08-30 05:10:00,
2013-08-30 00:15:00,78.9,71.8,29.85,South,190,0.0,0.0,79,0.00,,,0.00,Wunderground v.1.15,2013-08-30 05:15:00,
2013-08-30 00:20:00,78.9,71.8,29.85,South,190,0.0,0.0,79,0.00,,,0.00,Wunderground v.1.15,2013-08-30 05:20:00,
2013-08-30 00:25:00,78.8,72.1,29.85,South,190,0.0,0.0,80,0.00,,,0.00,Wunderground v.1.15,2013-08-30 05:25:00,
2013-08-30 00:35:00,78.6,71.9,29.85,South,190,0.0,0.0,80,0.00,,,0.00,Wunderground v.1.15,2013-08-30 05:35:00,
2013-08-30 00:40:00,78.8,72.1,29.85,South,190,0.0,0.0,80,0.00,,,0.00,Wunderground v.1.15,2013-08-30 05:40:00,
2013-08-30 00:50:00,78.9,72.2,29.85,South,190,0.0,0.0,80,0.00,,,0.00,Wunderground v.1.15,2013-08-30 05:50:00,
2013-08-30 00:55:00,78.8,72.1,29.85,South,190,0.0,0.0,80,0.00,,,0.00,Wunderground v.1.15,2013-08-30 05:55:00,
2013-08-30 01:00:00,78.8,72.1,29.85,South,190,0.0,0.0,80,0.00,,,0.00,Wunderground v.1.15,2013-08-30 06:00:00,
2013-08-30 01:05:00,78.7,72.0,29.85,South,190,0.0,0.0,80,0.00,,,0.00,Wunderground v.1.15,2013-08-30 06:05:00,
2013-08-30 01:10:00,78.5,71.8,29.85,South,190,0.0,0.0,80,0.00,,,0.00,Wunderground v.1.15,2013-08-30 06:10:00,
2013-08-30 01:20:00,78.2,71.9,29.84,South,190,0.0,0.0,81,0.00,,,0.00,Wunderground v.1.15,2013-08-30 06:20:00,
2013-08-30 01:25:00,78.0,72.1,29.84,South,190,0.0,0.0,82,0.00,,,0.00,Wunderground v.1.15,2013-08-30 06:25:00,
2013-08-30 01:30:00,77.8,71.9,29.84,South,190,0.0,0.0,82,0.00,,,0.00,Wunderground v.1.15,2013-08-30 06:30:00,
2013-08-30 01:35:00,77.7,71.8,29.84,South,190,0.0,0.0,82,0.00,,,0.00,Wunderground v.1.15,2013-08-30 06:35:00,
2013-08-30 01:40:00,77.6,71.7,29.84,South,190,0.0,0.0,82,0.00,,,0.00,Wunderground v.1.15,2013-08-30 06:40:00,
2013-08-30 01:45:00,77.4,71.5,29.84,South,190,0.0,0.0,82,0.00,,,0.00,Wunderground v.1.15,2013-08-30 06:45:00,
2013-08-30 01:50:00,77.2,71.6,29.84,South,190,0.0,0.0,83,0.00,,,0.00,Wunderground v.1.15,2013-08-30 06:50:00,
2013-08-30 02:00:00,76.9,71.7,29.84,South,186,0.0,0.0,84,0.00,,,0.00,Wunderground v.1.15,2013-08-30 07:00:00,
2013-08-30 02:05:00,76.8,71.6,29.84,South,186,0.0,0.0,84,0.00,,,0.00,Wunderground v.1.15,2013-08-30 07:05:00,
2013-08-30 02:15:00,76.6,71.4,29.84,South,186,0.0,0.0,84,0.00,,,0.00,Wunderground v.1.15,2013-08-30 07:15:00,
2013-08-30 02:20:00,76.5,71.7,29.84,South,186,0.0,0.0,85,0.00,,,0.00,Wunderground v.1.15,2013-08-30 07:20:00,
2013-08-30 02:25:00,76.5,71.7,29.84,South,186,0.0,0.0,85,0.00,,,0.00,Wunderground v.1.15,2013-08-30 07:25:00,
2013-08-30 02:30:00,76.4,71.6,29.84,South,186,0.0,0.0,85,0.00,,,0.00,Wunderground v.1.15,2013-08-30 07:30:00,
2013-08-30 02:35:00,76.4,71.6,29.84,South,186,0.0,0.0,85,0.00,,,0.00,Wunderground v.1.15,2013-08-30 07:35:00,
2013-08-30 02:40:00,76.4,71.6,29.84,South,184,0.0,0.0,85,0.00,,,0.00,Wunderground v.1.15,2013-08-30 07:40:00,
2013-08-30 02:45:00,76.4,71.6,29.84,South,184,0.0,0.0,85,0.00,,,0.00,Wunderground v.1.15,2013-08-30 07:45:00,
2013-08-30 02:50:00,76.3,71.8,29.84,South,182,0.0,0.0,86,0.00,,,0.00,Wunderground v.1.15,2013-08-30 07:50:00,
2013-08-30 02:55:00,76.3,71.8,29.84,South,182,0.0,0.0,86,0.00,,,0.00,Wunderground v.1.15,2013-08-30 07:55:00,
2013-08-30 03:00:00,76.2,71.7,29.84,South,182,0.0,0.0,86,0.00,,,0.00,Wunderground v.1.15,2013-08-30 08:00:00,
2013-08-30 03:10:00,76.2,71.7,29.84,South,182,0.0,0.0,86,0.00,,,0.00,Wunderground v.1.15,2013-08-30 08:10:00,
2013-08-30 03:15:00,76.2,71.7,29.84,South,188,0.0,0.0,86,0.00,,,0.00,Wunderground v.1.15,2013-08-30 08:15:00,
2013-08-30 03:25:00,76.2,71.7,29.83,South,188,0.0,0.0,86,0.00,,,0.00,Wunderground v.1.15,2013-08-30 08:25:00,
2013-08-30 03:30:00,76.1,71.6,29.83,SSW,197,0.0,0.0,86,0.00,,,0.00,Wunderground v.1.15,2013-08-30 08:30:00,
2013-08-30 03:35:00,76.1,71.6,29.83,SSW,195,0.0,0.0,86,0.00,,,0.00,Wunderground v.1.15,2013-08-30 08:35:00,
2013-08-30 03:40:00,76.1,71.6,29.83,SSW,197,0.0,0.0,86,0.00,,,0.00,Wunderground v.1.15,2013-08-30 08:40:00,
2013-08-30 03:45:00,76.1,71.6,29.83,SSW,196,0.0,0.0,86,0.00,,,0.00,Wunderground v.1.15,2013-08-30 08:45:00,
2013-08-30 03:50:00,76.0,71.5,29.83,SSW,197,0.0,0.0,86,0.00,,,0.00,Wunderground v.1.15,2013-08-30 08:50:00,
2013-08-30 03:55:00,75.9,71.8,29.83,SSW,196,0.0,0.0,87,0.00,,,0.00,Wunderground v.1.15,2013-08-30 08:55:00,
2013-08-30 04:00:00,75.9,71.8,29.83,SSW,197,0.0,0.0,87,0.00,,,0.00,Wunderground v.1.15,2013-08-30 09:00:00,
2013-08-30 04:05:00,75.9,71.8,29.83,South,188,0.0,0.0,87,0.00,,,0.00,Wunderground v.1.15,2013-08-30 09:05:00,
2013-08-30 04:10:00,75.9,71.8,29.83,SSW,200,0.0,0.0,87,0.00,,,0.00,Wunderground v.1.15,2013-08-30 09:10:00,
2013-08-30 04:20:00,75.9,71.8,29.82,South,185,0.0,0.0,87,0.00,,,0.00,Wunderground v.1.15,2013-08-30 09:20:00,
2013-08-30 04:30:00,75.7,71.6,29.82,SSW,194,1.0,1.0,87,0.00,,,0.00,Wunderground v.1.15,2013-08-30 09:30:00,
2013-08-30 04:35:00,75.8,71.7,29.82,SSW,196,1.0,1.0,87,0.00,,,0.00,Wunderground v.1.15,2013-08-30 09:35:00,
2013-08-30 04:40:00,75.8,71.7,29.81,South,182,0.0,0.0,87,0.00,,,0.00,Wunderground v.1.15,2013-08-30 09:40:00,
2013-08-30 04:45:00,75.8,71.7,29.81,SSW,200,0.0,0.0,87,0.00,,,0.00,Wunderground v.1.15,2013-08-30 09:45:00,
2013-08-30 04:50:00,75.8,71.7,29.82,SW,216,0.0,0.0,87,0.00,,,0.00,Wunderground v.1.15,2013-08-30 09:50:00,
2013-08-30 04:55:00,75.7,71.2,29.82,SSW,196,0.0,0.0,86,0.00,,,0.00,Wunderground v.1.15,2013-08-30 09:55:00,
2013-08-30 05:00:00,75.6,71.5,29.82,SSW,194,0.0,0.0,87,0.00,,,0.00,Wunderground v.1.15,2013-08-30 10:00:00,
2013-08-30 05:05:00,75.6,71.5,29.82,SSE,159,0.0,0.0,87,0.00,,,0.00,Wunderground v.1.15,2013-08-30 10:05:00,
2013-08-30 05:10:00,75.6,71.5,29.82,South,185,0.0,0.0,87,0.00,,,0.00,Wunderground v.1.15,2013-08-30 10:10:00,
2013-08-30 05:20:00,75.4,71.3,29.82,SSW,202,0.0,0.0,87,0.00,,,0.00,Wunderground v.1.15,2013-08-30 10:20:00,
2013-08-30 05:25:00,75.3,71.2,29.82,SSW,202,0.0,0.0,87,0.00,,,0.00,Wunderground v.1.15,2013-08-30 10:25:00,
2013-08-30 05:35:00,74.9,70.8,29.82,SSW,202,0.0,0.0,87,0.00,,,0.00,Wunderground v.1.15,2013-08-30 10:35:00,
2013-08-30 05:40:00,74.8,71.0,29.82,SSW,202,0.0,0.0,88,0.00,,,0.00,Wunderground v.1.15,2013-08-30 10:40:00,
2013-08-30 05:45:00,74.6,70.8,29.82,SSW,202,0.0,0.0,88,0.00,,,0.00,Wunderground v.1.15,2013-08-30 10:45:00,
2013-08-30 05:50:00,74.4,70.6,29.82,SSW,202,0.0,0.0,88,0.00,,,0.00,Wunderground v.1.15,2013-08-30 10:50:00,
2013-08-30 05:55:00,74.3,70.8,29.82,SSW,202,0.0,0.0,89,0.00,,,0.00,Wunderground v.1.15,2013-08-30 10:55:00,
2013-08-30 06:00:00,74.2,70.7,29.82,SSW,202,0.0,0.0,89,0.00,,,0.00,Wunderground v.1.15,2013-08-30 11:00:00,
2013-08-30 06:05:00,74.1,70.6,29.82,SSW,202,0.0,0.0,89,0.00,,,0.00,Wunderground v.1.15,2013-08-30 11:05:00,
2013-08-30 06:15:00,73.8,70.7,29.82,SSW,202,0.0,0.0,90,0.00,,,0.00,Wunderground v.1.15,2013-08-30 11:15:00,
2013-08-30 06:20:00,73.7,70.6,29.82,SSW,202,0.0,0.0,90,0.00,,,0.00,Wunderground v.1.15,2013-08-30 11:20:00,
2013-08-30 06:25:00,73.6,70.5,29.82,SSW,202,0.0,0.0,90,0.00,,,0.00,Wunderground v.1.15,2013-08-30 11:25:00,
2013-08-30 06:30:00,73.5,70.4,29.82,SSW,202,0.0,0.0,90,0.00,,,0.00,Wunderground v.1.15,2013-08-30 11:30:00,
2013-08-30 06:35:00,73.4,70.3,29.82,SSW,202,0.0,0.0,90,0.00,,,0.00,Wunderground v.1.15,2013-08-30 11:35:00,
2013-08-30 06:45:00,73.1,70.3,29.82,SSW,202,0.0,0.0,91,0.00,,,0.00,Wunderground v.1.15,2013-08-30 11:45:00,
2013-08-30 06:50:00,73.0,70.2,29.82,SSW,202,0.0,0.0,91,0.00,,,0.00,Wunderground v.1.15,2013-08-30 11:50:00,
2013-08-30 06:55:00,73.0,70.2,29.82,SSW,202,0.0,0.0,91,0.00,,,0.00,Wunderground v.1.15,2013-08-30 11:55:00,
2013-08-30 07:05:00,73.0,70.5,29.82,SSW,202,0.0,0.0,92,0.00,,,0.00,Wunderground v.1.15,2013-08-30 12:05:00,
2013-08-30 07:10:00,73.2,70.7,29.82,SSW,202,0.0,0.0,92,0.00,,,0.00,Wunderground v.1.15,2013-08-30 12:10:00,
2013-08-30 07:15:00,73.3,70.5,29.83,SSW,202,0.0,0.0,91,0.00,,,0.00,Wunderground v.1.15,2013-08-30 12:15:00,
2013-08-30 07:20:00,73.6,70.8,29.83,SSW,202,0.0,0.0,91,0.00,,,0.00,Wunderground v.1.15,2013-08-30 12:20:00,
2013-08-30 07:25:00,73.8,71.0,29.83,SSW,202,0.0,0.0,91,0.00,,,0.00,Wunderground v.1.15,2013-08-30 12:25:00,
2013-08-30 07:30:00,74.1,71.0,29.82,SSW,202,0.0,0.0,90,0.00,,,0.00,Wunderground v.1.15,2013-08-30 12:30:00,
2013-08-30 07:35:00,74.4,71.3,29.82,SSW,202,0.0,0.0,90,0.00,,,0.00,Wunderground v.1.15,2013-08-30 12:35:00,
2013-08-30 07:40:00,74.8,71.3,29.82,SSW,203,1.0,1.0,89,0.00,,,0.00,Wunderground v.1.15,2013-08-30 12:40:00,
2013-08-30 07:45:00,75.1,71.3,29.82,SSW,204,1.0,1.0,88,0.00,,,0.00,Wunderground v.1.15,2013-08-30 12:45:00,
2013-08-30 07:55:00,75.7,71.6,29.82,SW,215,0.0,2.0,87,0.00,,,0.00,Wunderground v.1.15,2013-08-30 12:55:00,
2013-08-30 08:00:00,76.1,71.6,29.82,SSW,207,0.0,0.0,86,0.00,,,0.00,Wunderground v.1.15,2013-08-30 13:00:00,
2013-08-30 08:05:00,76.2,71.7,29.82,SSW,213,0.0,0.0,86,0.00,,,0.00,Wunderground v.1.15,2013-08-30 13:05:00,
2013-08-30 08:15:00,76.7,71.8,29.82,SSW,196,0.0,0.0,85,0.00,,,0.00,Wunderground v.1.15,2013-08-30 13:15:00,
2013-08-30 08:20:00,76.8,71.9,29.82,SSW,205,0.0,0.0,85,0.00,,,0.00,Wunderground v.1.15,2013-08-30 13:20:00,
2013-08-30 08:25:00,77.1,71.9,29.82,SW,221,0.0,0.0,84,0.00,,,0.00,Wunderground v.1.15,2013-08-30 13:25:00,
2013-08-30 08:30:00,77.2,72.0,29.82,SSW,196,1.0,1.0,84,0.00,,,0.00,Wunderground v.1.15,2013-08-30 13:30:00,
2013-08-30 08:35:00,77.4,71.8,29.82,SSW,203,1.0,1.0,83,0.00,,,0.00,Wunderground v.1.15,2013-08-30 13:35:00,
2013-08-30 08:40:00,77.8,72.2,29.82,SSW,210,1.0,1.0,83,0.00,,,0.00,Wunderground v.1.15,2013-08-30 13:40:00,
2013-08-30 08:45:00,78.1,72.2,29.82,SSW,205,1.0,1.0,82,0.00,,,0.00,Wunderground v.1.15,2013-08-30 13:45:00,
2013-08-30 08:50:00,78.3,72.3,29.82,SW,217,1.0,1.0,82,0.00,,,0.00,Wunderground v.1.15,2013-08-30 13:50:00,
2013-08-30 08:55:00,78.5,72.2,29.82,South,171,1.0,1.0,81,0.00,,,0.00,Wunderground v.1.15,2013-08-30 13:55:00,
2013-08-30 09:05:00,79.0,72.3,29.82,SSW,210,0.0,1.0,80,0.00,,,0.00,Wunderground v.1.15,2013-08-30 14:05:00,
2013-08-30 09:10:00,79.3,72.6,29.82,SW,234,1.0,1.0,80,0.00,,,0.00,Wunderground v.1.15,2013-08-30 14:10:00,
2013-08-30 09:15:00,79.5,72.4,29.81,SW,221,1.0,1.0,79,0.00,,,0.00,Wunderground v.1.15,2013-08-30 14:15:00,
2013-08-30 09:20:00,79.6,72.5,29.81,SSW,209,1.0,1.0,79,0.00,,,0.00,Wunderground v.1.15,2013-08-30 14:20:00,
2013-08-30 09:25:00,79.8,72.7,29.81,SSW,195,1.0,6.0,79,0.00,,,0.00,Wunderground v.1.15,2013-08-30 14:25:00,
2013-08-30 09:30:00,80.2,72.7,29.81,SSW,202,1.0,5.0,78,0.00,,,0.00,Wunderground v.1.15,2013-08-30 14:30:00,
2013-08-30 09:40:00,81.1,73.2,29.81,South,190,1.0,1.0,77,0.00,,,0.00,Wunderground v.1.15,2013-08-30 14:40:00,
2013-08-30 09:45:00,81.7,73.4,29.81,SSW,201,0.0,1.0,76,0.00,,,0.00,Wunderground v.1.15,2013-08-30 14:45:00,
2013-08-30 09:50:00,81.9,73.2,29.81,SSW,206,0.0,0.0,75,0.00,,,0.00,Wunderground v.1.15,2013-08-30 14:50:00,
2013-08-30 09:55:00,82.0,73.3,29.81,SSW,195,1.0,4.0,75,0.00,,,0.00,Wunderground v.1.15,2013-08-30 14:55:00,
2013-08-30 10:00:00,82.7,74.0,29.81,West,259,1.0,1.0,75,0.00,,,0.00,Wunderground v.1.15,2013-08-30 15:00:00,
2013-08-30 10:05:00,83.4,74.2,29.81,SSW,213,1.0,1.0,74,0.00,,,0.00,Wunderground v.1.15,2013-08-30 15:05:00,
2013-08-30 10:15:00,84.2,74.2,29.81,SSW,200,1.0,7.0,72,0.00,,,0.00,Wunderground v.1.15,2013-08-30 15:15:00,
2013-08-30 10:20:00,84.4,74.0,29.81,SW,232,1.0,1.0,71,0.00,,,0.00,Wunderground v.1.15,2013-08-30 15:20:00,
2013-08-30 10:25:00,84.9,73.6,29.81,WSW,238,1.0,1.0,69,0.00,,,0.00,Wunderground v.1.15,2013-08-30 15:25:00,
2013-08-30 10:35:00,85.5,74.2,29.80,South,191,1.0,1.0,69,0.00,,,0.00,Wunderground v.1.15,2013-08-30 15:35:00,
2013-08-30 10:40:00,85.4,74.1,29.80,SW,223,2.0,2.0,69,0.00,,,0.00,Wunderground v.1.15,2013-08-30 15:40:00,
2013-08-30 10:45:00,86.2,74.8,29.80,SW,230,1.0,2.0,69,0.00,,,0.00,Wunderground v.1.15,2013-08-30 15:45:00,
2013-08-30 10:50:00,86.9,74.6,29.80,South,188,0.0,0.0,67,0.00,,,0.00,Wunderground v.1.15,2013-08-30 15:50:00,
2013-08-30 10:55:00,87.0,73.8,29.80,WNW,291,0.0,0.0,65,0.00,,,0.00,Wunderground v.1.15,2013-08-30 15:55:00,
2013-08-30 11:00:00,87.6,74.4,29.80,SSW,204,0.0,0.0,65,0.00,,,0.00,Wunderground v.1.15,2013-08-30 16:00:00,
2013-08-30 11:05:00,88.0,74.8,29.80,SW,214,0.0,0.0,65,0.00,,,0.00,Wunderground v.1.15,2013-08-30 16:05:00,
2013-08-30 11:10:00,88.3,74.6,29.79,WSW,254,0.0,2.0,64,0.00,,,0.00,Wunderground v.1.15,2013-08-30 16:10:00,
2013-08-30 11:15:00,88.7,75.4,29.79,SSW,210,1.0,2.0,65,0.00,,,0.00,Wunderground v.1.15,2013-08-30 16:15:00,
2013-08-30 11:25:00,89.5,74.8,29.79,SSW,206,1.0,2.0,62,0.00,,,0.00,Wunderground v.1.15,2013-08-30 16:25:00,
2013-08-30 11:30:00,89.6,75.3,29.79,SSW,205,1.0,1.0,63,0.00,,,0.00,Wunderground v.1.15,2013-08-30 16:30:00,
2013-08-30 11:40:00,90.7,74.9,29.79,SSW,211,0.0,0.0,60,0.00,,,0.00,Wunderground v.1.15,2013-08-30 16:40:00,
2013-08-30 11:45:00,91.4,75.1,29.79,NW,309,0.0,0.0,59,0.00,,,0.00,Wunderground v.1.15,2013-08-30 16:45:00,
2013-08-30 11:50:00,91.9,74.5,29.79,SSW,211,0.0,0.0,57,0.00,,,0.00,Wunderground v.1.15,2013-08-30 16:50:00,
2013-08-30 11:55:00,92.1,75.2,29.79,South,171,0.0,0.0,58,0.00,,,0.00,Wunderground v.1.15,2013-08-30 16:55:00,
2013-08-30 12:00:00,92.1,74.7,29.79,SW,227,0.0,0.0,57,0.00,,,0.00,Wunderground v.1.15,2013-08-30 17:00:00,
2013-08-30 12:05:00,93.0,75.0,29.79,SSW,194,0.0,0.0,56,0.00,,,0.00,Wunderground v.1.15,2013-08-30 17:05:00,
2013-08-30 12:10:00,93.5,74.9,29.78,WNW,293,0.0,0.0,55,0.00,,,0.00,Wunderground v.1.15,2013-08-30 17:10:00,
2013-08-30 12:20:00,94.2,75.0,29.78,West,264,0.0,0.0,54,0.00,,,0.00,Wunderground v.1.15,2013-08-30 17:20:00,
2013-08-30 12:25:00,94.5,75.8,29.78,NNW,340,0.0,0.0,55,0.00,,,0.00,Wunderground v.1.15,2013-08-30 17:25:00,
2013-08-30 12:30:00,94.8,75.0,29.78,WNW,298,0.0,0.0,53,0.00,,,0.00,Wunderground v.1.15,2013-08-30 17:30:00,
2013-08-30 12:35:00,94.6,74.8,29.78,NW,309,0.0,0.0,53,0.00,,,0.00,Wunderground v.1.15,2013-08-30 17:35:00,
2013-08-30 12:40:00,94.7,74.9,29.77,SW,215,0.0,3.0,53,0.00,,,0.00,Wunderground v.1.15,2013-08-30 17:40:00,
2013-08-30 12:45:00,94.2,73.3,29.77,WNW,293,1.0,3.0,51,0.00,,,0.00,Wunderground v.1.15,2013-08-30 17:45:00,
2013-08-30 12:50:00,94.7,74.3,29.77,SSW,202,1.0,7.0,52,0.00,,,0.00,Wunderground v.1.15,2013-08-30 17:50:00,
2013-08-30 12:55:00,94.0,74.3,29.77,SSW,193,1.0,7.0,53,0.00,,,0.00,Wunderground v.1.15,2013-08-30 17:55:00,
2013-08-30 13:00:00,94.2,73.9,29.77,SW,236,1.0,1.0,52,0.00,,,0.00,Wunderground v.1.15,2013-08-30 18:00:00,
2013-08-30 13:10:00,94.6,72.5,29.77,SSW,194,1.0,6.0,49,0.00,,,0.00,Wunderground v.1.15,2013-08-30 18:10:00,
2013-08-30 13:15:00,94.2,70.9,29.77,SSW,198,3.0,6.0,47,0.00,,,0.00,Wunderground v.1.15,2013-08-30 18:15:00,
2013-08-30 13:20:00,94.5,71.8,29.76,SE,134,2.0,2.0,48,0.00,,,0.00,Wunderground v.1.15,2013-08-30 18:20:00,
2013-08-30 13:25:00,95.0,71.6,29.76,WSW,252,1.0,2.0,47,0.00,,,0.00,Wunderground v.1.15,2013-08-30 18:25:00,
2013-08-30 13:30:00,95.8,73.0,29.76,NNE,29,1.0,1.0,48,0.00,,,0.00,Wunderground v.1.15,2013-08-30 18:30:00,
2013-08-30 13:35:00,96.3,71.5,29.76,SW,217,1.0,4.0,45,0.00,,,0.00,Wunderground v.1.15,2013-08-30 18:35:00,
2013-08-30 13:40:00,96.3,72.2,29.76,SSW,211,1.0,1.0,46,0.00,,,0.00,Wunderground v.1.15,2013-08-30 18:40:00,
2013-08-30 13:50:00,96.2,71.4,29.76,SW,218,1.0,1.0,45,0.00,,,0.00,Wunderground v.1.15,2013-08-30 18:50:00,
2013-08-30 14:00:00,96.5,72.3,29.76,SSW,211,1.0,1.0,46,0.00,,,0.00,Wunderground v.1.15,2013-08-30 19:00:00,
2013-08-30 14:05:00,97.0,72.8,29.76,WNW,298,1.0,1.0,46,0.00,,,0.00,Wunderground v.1.15,2013-08-30 19:05:00,
2013-08-30 14:10:00,97.4,73.1,29.76,SW,215,1.0,1.0,46,0.00,,,0.00,Wunderground v.1.15,2013-08-30 19:10:00,
2013-08-30 14:15:00,97.8,72.9,29.75,SSW,213,0.0,2.0,45,0.00,,,0.00,Wunderground v.1.15,2013-08-30 19:15:00,
2013-08-30 14:20:00,97.5,72.6,29.75,SSE,150,1.0,1.0,45,0.00,,,0.00,Wunderground v.1.15,2013-08-30 19:20:00,
2013-08-30 14:25:00,97.3,73.1,29.75,SSW,213,2.0,2.0,46,0.00,,,0.00,Wunderground v.1.15,2013-08-30 19:25:00,
2013-08-30 14:30:00,97.4,72.5,29.75,SSW,194,1.0,4.0,45,0.00,,,0.00,Wunderground v.1.15,2013-08-30 19:30:00,
2013-08-30 14:40:00,97.3,72.4,29.75,SSW,209,2.0,2.0,45,0.00,,,0.00,Wunderground v.1.15,2013-08-30 19:40:00,
2013-08-30 14:45:00,97.2,72.3,29.74,South,185,2.0,2.0,45,0.00,,,0.00,Wunderground v.1.15,2013-08-30 19:45:00,
2013-08-30 14:50:00,97.7,72.1,29.74,SW,236,1.0,1.0,44,0.00,,,0.00,Wunderground v.1.15,2013-08-30 19:50:00,
2013-08-30 14:55:00,97.7,72.1,29.74,SSW,200,1.0,5.0,44,0.00,,,0.00,Wunderground v.1.15,2013-08-30 19:55:00,
2013-08-30 15:05:00,98.6,72.2,29.74,East,91,1.0,1.0,43,0.00,,,0.00,Wunderground v.1.15,2013-08-30 20:05:00,
2013-08-30 15:10:00,98.5,70.7,29.74,SSW,209,1.0,7.0,41,0.00,,,0.00,Wunderground v.1.15,2013-08-30 20:10:00,
2013-08-30 15:15:00,98.5,70.0,29.74,South,184,2.0,7.0,40,0.00,,,0.00,Wunderground v.1.15,2013-08-30 20:15:00,
2013-08-30 15:20:00,99.1,70.5,29.74,SW,224,1.0,1.0,40,0.00,,,0.00,Wunderground v.1.15,2013-08-30 20:20:00,
2013-08-30 15:30:00,99.8,71.2,29.73,South,185,0.0,0.0,40,0.00,,,0.00,Wunderground v.1.15,2013-08-30 20:30:00,
2013-08-30 15:35:00,99.9,70.5,29.73,SSW,194,1.0,1.0,39,0.00,,,0.00,Wunderground v.1.15,2013-08-30 20:35:00,
2013-08-30 15:40:00,99.8,70.4,29.73,WNW,298,0.0,0.0,39,0.00,,,0.00,Wunderground v.1.15,2013-08-30 20:40:00,
2013-08-30 15:45:00,100.0,71.3,29.73,SSW,208,0.0,0.0,40,0.00,,,0.00,Wunderground v.1.15,2013-08-30 20:45:00,
2013-08-30 15:50:00,100.1,70.7,29.73,SW,216,0.0,0.0,39,0.00,,,0.00,Wunderground v.1.15,2013-08-30 20:50:00,
2013-08-30 15:55:00,100.4,71.0,29.73,NW,304,0.0,0.0,39,0.00,,,0.00,Wunderground v.1.15,2013-08-30 20:55:00,
2013-08-30 16:00:00,100.6,71.1,29.73,West,271,0.0,0.0,39,0.00,,,0.00,Wunderground v.1.15,2013-08-30 21:00:00,
2013-08-30 16:10:00,100.0,70.6,29.73,WNW,296,0.0,0.0,39,0.00,,,0.00,Wunderground v.1.15,2013-08-30 21:10:00,
2013-08-30 16:20:00,99.2,70.6,29.72,SSW,209,0.0,0.0,40,0.00,,,0.00,Wunderground v.1.15,2013-08-30 21:20:00,
2013-08-30 16:25:00,98.8,71.0,29.72,SW,215,1.0,1.0,41,0.00,,,0.00,Wunderground v.1.15,2013-08-30 21:25:00,
2013-08-30 16:30:00,99.1,70.5,29.72,West,261,1.0,1.0,40,0.00,,,0.00,Wunderground v.1.15,2013-08-30 21:30:00,
2013-08-30 16:35:00,99.3,71.4,29.72,SW,226,1.0,1.0,41,0.00,,,0.00,Wunderground v.1.15,2013-08-30 21:35:00,
2013-08-30 16:40:00,99.8,71.9,29.72,SW,225,0.0,0.0,41,0.00,,,0.00,Wunderground v.1.15,2013-08-30 21:40:00,
2013-08-30 16:45:00,99.7,70.3,29.71,SSW,203,0.0,1.0,39,0.00,,,0.00,Wunderground v.1.15,2013-08-30 21:45:00,
2013-08-30 16:50:00,99.6,71.0,29.71,West,279,0.0,0.0,40,0.00,,,0.00,Wunderground v.1.15,2013-08-30 21:50:00,
2013-08-30 17:00:00,99.3,70.7,29.71,WNW,290,0.0,0.0,40,0.00,,,0.00,Wunderground v.1.15,2013-08-30 22:00:00,
2013-08-30 17:05:00,99.0,69.7,29.71,South,191,0.0,0.0,39,0.00,,,0.00,Wunderground v.1.15,2013-08-30 22:05:00,
2013-08-30 17:10:00,98.8,70.3,29.71,SSW,193,0.0,0.0,40,0.00,,,0.00,Wunderground v.1.15,2013-08-30 22:10:00,
2013-08-30 17:15:00,99.1,70.5,29.70,WSW,253,0.0,0.0,40,0.00,,,0.00,Wunderground v.1.15,2013-08-30 22:15:00,
2013-08-30 17:20:00,99.3,70.7,29.70,SSW,198,0.0,2.0,40,0.00,,,0.00,Wunderground v.1.15,2013-08-30 22:20:00,
2013-08-30 17:30:00,98.6,70.8,29.70,SSW,202,0.0,0.0,41,0.00,,,0.00,Wunderground v.1.15,2013-08-30 22:30:00,
2013-08-30 17:35:00,98.3,70.6,29.70,SSW,209,0.0,0.0,41,0.00,,,0.00,Wunderground v.1.15,2013-08-30 22:35:00,
2013-08-30 17:40:00,98.2,71.9,29.70,SSW,207,0.0,0.0,43,0.00,,,0.00,Wunderground v.1.15,2013-08-30 22:40:00,
2013-08-30 17:45:00,98.2,71.2,29.69,SSW,208,0.0,0.0,42,0.00,,,0.00,Wunderground v.1.15,2013-08-30 22:45:00,
2013-08-30 17:50:00,98.3,72.6,29.70,SSW,200,0.0,0.0,44,0.00,,,0.00,Wunderground v.1.15,2013-08-30 22:50:00,
2013-08-30 17:55:00,98.3,72.0,29.69,SSW,200,0.0,0.0,43,0.00,,,0.00,Wunderground v.1.15,2013-08-30 22:55:00,
2013-08-30 18:05:00,99.5,72.3,29.70,SW,234,0.0,0.0,42,0.00,,,0.00,Wunderground v.1.15,2013-08-30 23:05:00,
2013-08-30 18:10:00,99.4,72.9,29.69,WSW,254,0.0,0.0,43,0.00,,,0.00,Wunderground v.1.15,2013-08-30 23:10:00,
2013-08-30 18:15:00,98.5,73.5,29.69,North,355,0.0,0.0,45,0.00,,,0.00,Wunderground v.1.15,2013-08-30 23:15:00,
2013-08-30 18:20:00,97.5,73.2,29.69,NNW,345,0.0,0.0,46,0.00,,,0.00,Wunderground v.1.15,2013-08-30 23:20:00,
2013-08-30 18:25:00,96.8,73.2,29.69,North,350,0.0,0.0,47,0.00,,,0.00,Wunderground v.1.15,2013-08-30 23:25:00,
2013-08-30 18:35:00,95.8,74.8,29.69,North,355,0.0,0.0,51,0.00,,,0.00,Wunderground v.1.15,2013-08-30 23:35:00,
2013-08-30 18:45:00,95.0,74.6,29.69,WNW,294,0.0,0.0,52,0.00,,,0.00,Wunderground v.1.15,2013-08-30 23:45:00,
2013-08-30 18:50:00,94.6,74.8,29.69,WNW,294,0.0,0.0,53,0.00,,,0.00,Wunderground v.1.15,2013-08-30 23:50:00,
2013-08-30 18:55:00,94.2,74.4,29.69,WNW,294,0.0,0.0,53,0.00,,,0.00,Wunderground v.1.15,2013-08-30 23:55:00,
2013-08-30 19:00:00,94.0,74.8,29.69,WNW,294,0.0,0.0,54,0.00,,,0.00,Wunderground v.1.15,2013-08-31 00:00:00,
2013-08-30 19:05:00,93.7,74.5,29.69,WNW,294,0.0,0.0,54,0.00,,,0.00,Wunderground v.1.15,2013-08-31 00:05:00,
2013-08-30 19:10:00,93.5,74.4,29.69,WNW,294,0.0,0.0,54,0.00,,,0.00,Wunderground v.1.15,2013-08-31 00:10:00,
2013-08-30 19:15:00,93.2,74.6,29.69,WNW,294,0.0,0.0,55,0.00,,,0.00,Wunderground v.1.15,2013-08-31 00:15:00,
2013-08-30 19:25:00,92.7,74.7,29.69,WNW,294,0.0,0.0,56,0.00,,,0.00,Wunderground v.1.15,2013-08-31 00:25:00,
2013-08-30 19:30:00,92.4,75.0,29.69,WNW,294,0.0,0.0,57,0.00,,,0.00,Wunderground v.1.15,2013-08-31 00:30:00,
2013-08-30 19:35:00,92.2,75.3,29.69,WNW,294,0.0,0.0,58,0.00,,,0.00,Wunderground v.1.15,2013-08-31 00:35:00,
2013-08-30 19:40:00,91.9,75.0,29.70,WNW,294,0.0,0.0,58,0.00,,,0.00,Wunderground v.1.15,2013-08-31 00:40:00,
2013-08-30 19:45:00,91.6,74.7,29.70,WNW,294,0.0,0.0,58,0.00,,,0.00,Wunderground v.1.15,2013-08-31 00:45:00,
2013-08-30 19:55:00,91.1,74.8,29.70,WNW,294,0.0,0.0,59,0.00,,,0.00,Wunderground v.1.15,2013-08-31 00:55:00,
2013-08-30 20:00:00,90.9,75.1,29.70,WNW,294,0.0,0.0,60,0.00,,,0.00,Wunderground v.1.15,2013-08-31 01:00:00,
2013-08-30 20:05:00,90.6,75.3,29.70,WNW,294,0.0,0.0,61,0.00,,,0.00,Wunderground v.1.15,2013-08-31 01:05:00,
2013-08-30 20:10:00,90.3,75.5,29.71,WNW,294,0.0,0.0,62,0.00,,,0.00,Wunderground v.1.15,2013-08-31 01:10:00,
2013-08-30 20:15:00,89.9,77.0,29.71,NNW,346,0.0,0.0,66,0.00,,,0.00,Wunderground v.1.15,2013-08-31 01:15:00,
2013-08-30 20:20:00,89.4,77.4,29.71,NNW,347,0.0,0.0,68,0.00,,,0.00,Wunderground v.1.15,2013-08-31 01:20:00,
2013-08-30 20:30:00,88.1,77.9,29.71,East,79,0.0,0.0,72,0.00,,,0.00,Wunderground v.1.15,2013-08-31 01:30:00,
2013-08-30 20:35:00,87.6,78.3,29.71,ENE,69,0.0,0.0,74,0.00,,,0.00,Wunderground v.1.15,2013-08-31 01:35:00,
2013-08-30 20:40:00,87.2,78.7,29.71,North,355,0.0,1.0,76,0.00,,,0.00,Wunderground v.1.15,2013-08-31 01:40:00,
2013-08-30 20:50:00,86.4,78.7,29.72,NNW,344,0.0,0.0,78,0.00,,,0.00,Wunderground v.1.15,2013-08-31 01:50:00,
2013-08-30 20:55:00,86.0,78.7,29.72,NNW,348,0.0,0.0,79,0.00,,,0.00,Wunderground v.1.15,2013-08-31 01:55:00,
2013-08-30 21:00:00,85.7,78.4,29.72,North,360,0.0,0.0,79,0.00,,,0.00,Wunderground v.1.15,2013-08-31 02:00:00,
2013-08-30 21:05:00,85.4,78.1,29.72,NNW,341,1.0,1.0,79,0.00,,,0.00,Wunderground v.1.15,2013-08-31 02:05:00,
2013-08-30 21:10:00,85.2,78.3,29.72,North,355,1.0,1.0,80,0.00,,,0.00,Wunderground v.1.15,2013-08-31 02:10:00,
2013-08-30 21:15:00,84.9,78.0,29.72,NNE,24,0.0,1.0,80,0.00,,,0.00,Wunderground v.1.15,2013-08-31 02:15:00,
2013-08-30 21:20:00,84.6,77.7,29.72,NNW,347,0.0,0.0,80,0.00,,,0.00,Wunderground v.1.15,2013-08-31 02:20:00,
2013-08-30 21:25:00,84.3,77.5,29.72,NW,318,0.0,0.0,80,0.00,,,0.00,Wunderground v.1.15,2013-08-31 02:25:00,
2013-08-30 21:30:00,83.9,77.4,29.72,NNE,17,0.0,0.0,81,0.00,,,0.00,Wunderground v.1.15,2013-08-31 02:30:00,
2013-08-30 21:40:00,83.2,77.1,29.72,North,355,0.0,0.0,82,0.00,,,0.00,Wunderground v.1.15,2013-08-31 02:40:00,
2013-08-30 21:45:00,83.0,76.9,29.72,North,5,0.0,0.0,82,0.00,,,0.00,Wunderground v.1.15,2013-08-31 02:45:00,
2013-08-30 21:50:00,82.7,77.0,29.72,NNE,24,0.0,0.0,83,0.00,,,0.00,Wunderground v.1.15,2013-08-31 02:50:00,
2013-08-30 21:55:00,82.4,76.7,29.72,North,350,0.0,0.0,83,0.00,,,0.00,Wunderground v.1.15,2013-08-31 02:55:00,
2013-08-30 22:00:00,82.1,76.4,29.72,North,5,0.0,0.0,83,0.00,,,0.00,Wunderground v.1.15,2013-08-31 03:00:00,
2013-08-30 22:05:00,81.9,76.6,29.72,North,355,0.0,0.0,84,0.00,,,0.00,Wunderground v.1.15,2013-08-31 03:05:00,
2013-08-30 22:10:00,81.7,76.4,29.72,NNW,338,0.0,0.0,84,0.00,,,0.00,Wunderground v.1.15,2013-08-31 03:10:00,
2013-08-30 22:20:00,81.3,76.0,29.72,NNW,337,0.0,0.0,84,0.00,,,0.00,Wunderground v.1.15,2013-08-31 03:20:00,
2013-08-30 22:25:00,81.1,75.8,29.72,NNW,329,0.0,0.0,84,0.00,,,0.00,Wunderground v.1.15,2013-08-31 03:25:00,
2013-08-30 22:35:00,80.8,75.5,29.72,NNW,346,0.0,0.0,84,0.00,,,0.00,Wunderground v.1.15,2013-08-31 03:35:00,
2013-08-30 22:45:00,80.5,75.6,29.72,NNW,344,0.0,0.0,85,0.00,,,0.00,Wunderground v.1.15,2013-08-31 03:45:00,
2013-08-30 22:50:00,80.4,75.5,29.72,NNE,28,0.0,0.0,85,0.00,,,0.00,Wunderground v.1.15,2013-08-31 03:50:00,
2013-08-30 22:55:00,80.1,75.2,29.72,North,360,0.0,0.0,85,0.00,,,0.00,Wunderground v.1.15,2013-08-31 03:55:00,
2013-08-30 23:00:00,80.0,75.1,29.72,North,5,0.0,0.0,85,0.00,,,0.00,Wunderground v.1.15,2013-08-31 04:00:00,
2013-08-30 23:05:00,79.8,74.9,29.72,NNE,17,0.0,0.0,85,0.00,,,0.00,Wunderground v.1.15,2013-08-31 04:05:00,
2013-08-30 23:10:00,79.7,74.8,29.73,NNE,19,0.0,0.0,85,0.00,,,0.00,Wunderground v.1.15,2013-08-31 04:10:00,
2013-08-30 23:15:00,79.6,74.7,29.73,NNE,29,0.0,0.0,85,0.00,,,0.00,Wunderground v.1.15,2013-08-31 04:15:00,
2013-08-30 23:20:00,79.5,74.9,29.72,NE,36,0.0,0.0,86,0.00,,,0.00,Wunderground v.1.15,2013-08-31 04:20:00,
2013-08-30 23:30:00,79.3,74.7,29.73,NNE,26,0.0,0.0,86,0.00,,,0.00,Wunderground v.1.15,2013-08-31 04:30:00,
2013-08-30 23:35:00,79.2,74.6,29.73,NE,39,0.0,0.0,86,0.00,,,0.00,Wunderground v.1.15,2013-08-31 04:35:00,
2013-08-30 23:40:00,79.0,74.5,29.73,NNE,15,0.0,0.0,86,0.00,,,0.00,Wunderground v.1.15,2013-08-31 04:40:00,
2013-08-30 23:45:00,78.9,74.4,29.72,North,355,0.0,0.0,86,0.00,,,0.00,Wunderground v.1.15,2013-08-31 04:45:00,
2013-08-30 23:50:00,78.7,74.2,29.72,NNW,336,0.0,0.0,86,0.00,,,0.00,Wunderground v.1.15,2013-08-31 04:50:00,
2013-08-30 23:55:00,78.6,74.4,29.73,NNW,348,0.0,0.0,87,0.00,,,0.00,Wunderground v.1.15,2013-08-31 04:55:00,